Hourly Data Report for April 03, 2003

SHERBROOKE A
QUEBEC

45°26'00.000" N
71°41'00.000" W
241.40 m
7028124
71610
YSC

Download Data

Hourly Data (April 2003)
Hourly Data Report for April 3, 2003
TIME
LST
Temp Definition
°C
Dew Point Definition
°C
Rel Hum Definition
%
Precip. Amount Definition
mm

Wind Dir Definition
10's deg

Wind Spd Definition
km/h
Visibility Definition
km
Stn Press Definition
kPa
Hmdx Definition


Wind Chill Definition


Weather Definition


00:00 -3.9 -4.9 93   28 4 6.4 98.92   -6  
01:00 -2.9 -4.0 92     0 8.0 98.92      
02:00 -3.0 -4.0 93   28 6 8.0 98.94   -5  
03:00 -4.3 -5.6 91   36 4 8.0 98.96   -6  
04:00 -4.5 -8.8 72   2 4 15.0 99.00   -6  
05:00 -5.5 -9.8 72   36 6 15.0 99.07   -8  
06:00 -6.7 -11.0 71     0 15.0 99.15      
07:00 -4.8 -10.9 62     0 15.0 99.17      
08:00 -3.1 -12.2 49   36 6 24.1 99.18   -6 Mostly Cloudy
09:00 -2.2 -11.8 48   8 6 24.1 99.18   -5 Mostly Cloudy
10:00 -1.5 -11.9 45   4 6 24.1 99.19   -4 Mostly Cloudy
11:00 -0.7 -12.1 42   26 13 24.1 99.15   -5 Mostly Cloudy
12:00 0.1 -11.9 40   28 17 24.1 99.08     Mainly Clear
13:00 0.6 -12.5 37   29 11 24.1 99.06     Mostly Cloudy
14:00 -0.5 -12.2 41   28 20 24.1 98.98   -6 Mostly Cloudy
15:00 -0.2 -12.5 39   28 17 24.1 99.00   -5 Mostly Cloudy
16:00 -0.7 -13.7 37   33 9 24.1 99.01   -4 Mostly Cloudy
17:00 -1.4 -15.0 35   32 13 24.1 99.04   -6 Mostly Cloudy
18:00 -2.3 -16.3 33   30 9 15.0 99.05   -6  
19:00 -3.4 -16.7 35   31 6 15.0 99.07   -6  
20:00 -5.0 -13.9 50     0 15.0 99.12      
21:00 -7.3 -12.5 66   30 4 15.0 99.08   -9  
22:00 -7.8 -13.3 65     0 15.0 99.06      
23:00 -6.1 -14.5 51   32 7 15.0 99.09   -9  

Notes on Data Quality.

Legend

  • E = Estimated
  • M = Missing
  • NA = Not Available*
  • [empty] = Indicates an unobserved value
Date modified: